Time,TemperatureF,DewpointF,PressureIn,WindDirection,WindDirectionDegrees,WindSpeedMPH,WindSpeedGustMPH,Humidity,HourlyPrecipIn,Conditions,Clouds,dailyrainin,SolarRadiationWatts/m^2,SoftwareType,DateUTC
2013-05-27 00:22:00,40.0,38.0,-100.00,ENE,64,0.0,2.0,93,0.00,,,0.00,0.000000,,2013-05-27 05:22:00,
2013-05-27 00:32:00,40.0,38.0,-100.00,ENE,64,0.0,2.0,93,0.00,,,0.00,0.000000,,2013-05-27 05:32:00,
2013-05-27 00:42:00,40.0,38.0,-100.00,ENE,64,0.0,2.0,93,0.00,,,0.00,0.000000,,2013-05-27 05:42:00,
2013-05-27 00:52:00,40.0,38.0,-100.00,ENE,64,0.0,2.0,93,0.00,,,0.00,0.000000,,2013-05-27 05:52:00,
2013-05-27 01:01:00,40.0,38.0,-100.00,ENE,64,0.0,2.0,93,0.00,,,0.00,0.000000,,2013-05-27 06:01:00,
2013-05-27 01:02:00,40.0,38.0,-100.00,ESE,102,2.0,4.0,91,0.00,,,0.00,0.000000,,2013-05-27 06:02:00,
2013-05-27 01:22:00,40.0,38.0,-100.00,ESE,102,2.0,4.0,91,0.00,,,0.00,0.000000,,2013-05-27 06:22:00,
2013-05-27 01:32:00,40.0,38.0,-100.00,ESE,102,2.0,4.0,91,0.00,,,0.00,0.000000,,2013-05-27 06:32:00,
2013-05-27 01:42:00,40.0,38.0,-100.00,ESE,102,2.0,4.0,91,0.00,,,0.00,0.000000,,2013-05-27 06:42:00,
2013-05-27 01:52:00,40.0,38.0,-100.00,ESE,102,2.0,4.0,91,0.00,,,0.00,0.000000,,2013-05-27 06:52:00,
2013-05-27 02:02:00,40.0,38.0,-100.00,ENE,67,1.0,4.0,93,0.00,,,0.00,0.000000,,2013-05-27 07:02:00,
2013-05-27 02:21:00,40.0,38.0,-100.00,ENE,67,1.0,4.0,93,0.00,,,0.00,0.000000,,2013-05-27 07:21:00,
2013-05-27 02:32:00,40.0,38.0,-100.00,ENE,67,1.0,4.0,93,0.00,,,0.00,0.000000,,2013-05-27 07:32:00,
2013-05-27 02:42:00,40.0,38.0,-100.00,ENE,67,1.0,4.0,93,0.00,,,0.00,0.000000,,2013-05-27 07:42:00,
2013-05-27 02:52:00,40.0,38.0,-100.00,ENE,67,1.0,4.0,93,0.00,,,0.00,0.000000,,2013-05-27 07:52:00,
2013-05-27 03:02:00,40.0,38.0,-100.00,East,92,2.0,6.0,93,0.00,,,0.00,0.000000,,2013-05-27 08:02:00,
2013-05-27 03:22:00,40.0,38.0,-100.00,East,92,2.0,6.0,93,0.00,,,0.00,0.000000,,2013-05-27 08:22:00,
2013-05-27 03:33:00,40.0,38.0,-100.00,East,92,2.0,6.0,93,0.00,,,0.00,0.000000,,2013-05-27 08:33:00,
2013-05-27 03:42:00,40.0,38.0,-100.00,East,92,2.0,6.0,93,0.00,,,0.00,0.000000,,2013-05-27 08:42:00,
2013-05-27 03:52:00,40.0,38.0,-100.00,East,92,2.0,6.0,93,0.00,,,0.00,0.000000,,2013-05-27 08:52:00,
2013-05-27 04:02:00,42.0,39.0,-100.00,East,95,2.0,6.0,90,0.00,,,0.00,0.000000,,2013-05-27 09:02:00,
2013-05-27 04:22:00,42.0,39.0,-100.00,East,95,2.0,6.0,90,0.00,,,0.00,0.000000,,2013-05-27 09:22:00,
2013-05-27 04:33:00,42.0,39.0,-100.00,East,95,2.0,6.0,90,0.00,,,0.00,0.000000,,2013-05-27 09:33:00,
2013-05-27 04:42:00,42.0,39.0,-100.00,East,95,2.0,6.0,90,0.00,,,0.00,0.000000,,2013-05-27 09:42:00,
2013-05-27 04:53:00,42.0,39.0,-100.00,East,95,2.0,6.0,90,0.00,,,0.00,0.000000,,2013-05-27 09:53:00,
2013-05-27 05:02:00,46.0,40.0,-100.00,ESE,115,4.0,7.0,79,0.00,,,0.00,0.000000,,2013-05-27 10:02:00,
2013-05-27 05:23:00,46.0,40.0,-100.00,ESE,115,4.0,7.0,79,0.00,,,0.00,0.000000,,2013-05-27 10:23:00,
2013-05-27 05:32:00,46.0,40.0,-100.00,ESE,115,4.0,7.0,79,0.00,,,0.00,0.000000,,2013-05-27 10:32:00,
2013-05-27 05:42:00,46.0,40.0,-100.00,ESE,115,4.0,7.0,79,0.00,,,0.00,0.000000,,2013-05-27 10:42:00,
2013-05-27 05:52:00,46.0,40.0,-100.00,ESE,115,4.0,7.0,79,0.00,,,0.00,0.000000,,2013-05-27 10:52:00,
2013-05-27 06:22:00,48.0,39.0,-100.00,ESE,118,4.0,8.0,71,0.00,,,0.00,7.000000,,2013-05-27 11:22:00,
2013-05-27 06:32:00,48.0,39.0,-100.00,ESE,118,4.0,8.0,71,0.00,,,0.00,7.000000,,2013-05-27 11:32:00,
2013-05-27 06:42:00,48.0,39.0,-100.00,ESE,118,4.0,8.0,71,0.00,,,0.00,7.000000,,2013-05-27 11:42:00,
2013-05-27 06:52:00,48.0,39.0,-100.00,ESE,118,4.0,8.0,71,0.00,,,0.00,7.000000,,2013-05-27 11:52:00,
2013-05-27 07:01:00,48.0,39.0,-100.00,ESE,118,4.0,8.0,71,0.00,,,0.00,7.000000,,2013-05-27 12:01:00,
2013-05-27 07:22:00,51.0,38.0,-100.00,ESE,119,5.0,11.0,61,0.00,,,0.00,58.000000,,2013-05-27 12:22:00,
2013-05-27 07:32:00,51.0,38.0,-100.00,ESE,119,5.0,11.0,61,0.00,,,0.00,58.000000,,2013-05-27 12:32:00,
2013-05-27 07:42:00,51.0,38.0,-100.00,ESE,119,5.0,11.0,61,0.00,,,0.00,58.000000,,2013-05-27 12:42:00,
2013-05-27 07:52:00,51.0,38.0,-100.00,ESE,119,5.0,11.0,61,0.00,,,0.00,58.000000,,2013-05-27 12:52:00,
2013-05-27 08:01:00,51.0,38.0,-100.00,ESE,119,5.0,11.0,61,0.00,,,0.00,58.000000,,2013-05-27 13:01:00,
2013-05-27 08:22:00,53.0,37.0,-100.00,ESE,122,5.0,13.0,55,0.00,,,0.00,93.000000,,2013-05-27 13:22:00,
2013-05-27 08:32:00,53.0,37.0,-100.00,ESE,122,5.0,13.0,55,0.00,,,0.00,93.000000,,2013-05-27 13:32:00,
2013-05-27 08:42:00,53.0,37.0,-100.00,ESE,122,5.0,13.0,55,0.00,,,0.00,93.000000,,2013-05-27 13:42:00,
2013-05-27 08:52:00,53.0,37.0,-100.00,ESE,122,5.0,13.0,55,0.00,,,0.00,93.000000,,2013-05-27 13:52:00,
2013-05-27 09:01:00,53.0,37.0,-100.00,ESE,122,5.0,13.0,55,0.00,,,0.00,93.000000,,2013-05-27 14:01:00,
2013-05-27 09:22:00,56.0,38.0,-100.00,ESE,117,6.0,10.0,50,0.00,,,0.00,167.000000,,2013-05-27 14:22:00,
2013-05-27 09:32:00,56.0,38.0,-100.00,ESE,117,6.0,10.0,50,0.00,,,0.00,167.000000,,2013-05-27 14:32:00,
2013-05-27 09:42:00,56.0,38.0,-100.00,ESE,117,6.0,10.0,50,0.00,,,0.00,167.000000,,2013-05-27 14:42:00,
2013-05-27 09:52:00,56.0,38.0,-100.00,ESE,117,6.0,10.0,50,0.00,,,0.00,167.000000,,2013-05-27 14:52:00,
2013-05-27 10:01:00,56.0,38.0,-100.00,ESE,117,6.0,10.0,50,0.00,,,0.00,167.000000,,2013-05-27 15:01:00,
2013-05-27 10:02:00,59.0,38.0,-100.00,ESE,117,5.0,13.0,45,0.00,,,0.00,263.000000,,2013-05-27 15:02:00,
2013-05-27 10:22:00,59.0,38.0,-100.00,ESE,117,5.0,13.0,45,0.00,,,0.00,263.000000,,2013-05-27 15:22:00,
2013-05-27 10:33:00,59.0,38.0,-100.00,ESE,117,5.0,13.0,45,0.00,,,0.00,263.000000,,2013-05-27 15:33:00,
2013-05-27 10:43:00,59.0,38.0,-100.00,ESE,117,5.0,13.0,45,0.00,,,0.00,263.000000,,2013-05-27 15:43:00,
2013-05-27 10:53:00,59.0,38.0,-100.00,ESE,117,5.0,13.0,45,0.00,,,0.00,263.000000,,2013-05-27 15:53:00,
2013-05-27 11:02:00,63.0,38.0,-100.00,ESE,107,6.0,15.0,40,0.00,,,0.00,400.000000,,2013-05-27 16:02:00,
2013-05-27 11:23:00,63.0,38.0,-100.00,ESE,107,6.0,15.0,40,0.00,,,0.00,400.000000,,2013-05-27 16:23:00,
2013-05-27 11:33:00,63.0,38.0,-100.00,ESE,107,6.0,15.0,40,0.00,,,0.00,400.000000,,2013-05-27 16:33:00,
2013-05-27 11:42:00,63.0,38.0,-100.00,ESE,107,6.0,15.0,40,0.00,,,0.00,400.000000,,2013-05-27 16:42:00,
2013-05-27 11:53:00,63.0,38.0,-100.00,ESE,107,6.0,15.0,40,0.00,,,0.00,400.000000,,2013-05-27 16:53:00,
2013-05-27 12:02:00,66.0,38.0,-100.00,ESE,123,8.0,15.0,36,0.00,,,0.00,512.000000,,2013-05-27 17:02:00,
2013-05-27 12:22:00,66.0,38.0,-100.00,ESE,123,8.0,15.0,36,0.00,,,0.00,512.000000,,2013-05-27 17:22:00,
2013-05-27 12:32:00,66.0,38.0,-100.00,ESE,123,8.0,15.0,36,0.00,,,0.00,512.000000,,2013-05-27 17:32:00,
2013-05-27 12:43:00,66.0,38.0,-100.00,ESE,123,8.0,15.0,36,0.00,,,0.00,512.000000,,2013-05-27 17:43:00,
2013-05-27 12:52:00,66.0,38.0,-100.00,ESE,123,8.0,15.0,36,0.00,,,0.00,512.000000,,2013-05-27 17:52:00,
2013-05-27 13:22:00,67.0,41.0,-100.00,SE,138,8.0,26.0,39,0.00,,,0.00,396.000000,,2013-05-27 18:22:00,
2013-05-27 13:32:00,67.0,41.0,-100.00,SE,138,8.0,26.0,39,0.00,,,0.00,396.000000,,2013-05-27 18:32:00,
2013-05-27 13:42:00,67.0,41.0,-100.00,SE,138,8.0,26.0,39,0.00,,,0.00,396.000000,,2013-05-27 18:42:00,
2013-05-27 13:52:00,67.0,41.0,-100.00,SE,138,8.0,26.0,39,0.00,,,0.00,396.000000,,2013-05-27 18:52:00,
2013-05-27 14:01:00,67.0,41.0,-100.00,SE,138,8.0,26.0,39,0.00,,,0.00,396.000000,,2013-05-27 19:01:00,
2013-05-27 14:22:00,69.0,40.0,-100.00,SE,126,10.0,18.0,35,0.00,,,0.00,802.000000,,2013-05-27 19:22:00,
2013-05-27 14:32:00,69.0,40.0,-100.00,SE,126,10.0,18.0,35,0.00,,,0.00,802.000000,,2013-05-27 19:32:00,
2013-05-27 14:42:00,69.0,40.0,-100.00,SE,126,10.0,18.0,35,0.00,,,0.00,802.000000,,2013-05-27 19:42:00,
2013-05-27 14:52:00,69.0,40.0,-100.00,SE,126,10.0,18.0,35,0.00,,,0.00,802.000000,,2013-05-27 19:52:00,
2013-05-27 15:01:00,69.0,40.0,-100.00,SE,126,10.0,18.0,35,0.00,,,0.00,802.000000,,2013-05-27 20:01:00,
2013-05-27 15:22:00,69.0,42.0,-100.00,SSE,153,10.0,18.0,37,0.00,,,0.00,454.000000,,2013-05-27 20:22:00,
2013-05-27 15:32:00,69.0,42.0,-100.00,SSE,153,10.0,18.0,37,0.00,,,0.00,454.000000,,2013-05-27 20:32:00,
2013-05-27 15:42:00,69.0,42.0,-100.00,SSE,153,10.0,18.0,37,0.00,,,0.00,454.000000,,2013-05-27 20:42:00,
2013-05-27 15:52:00,69.0,42.0,-100.00,SSE,153,10.0,18.0,37,0.00,,,0.00,454.000000,,2013-05-27 20:52:00,
2013-05-27 16:01:00,69.0,42.0,-100.00,SSE,153,10.0,18.0,37,0.00,,,0.00,454.000000,,2013-05-27 21:01:00,
2013-05-27 16:02:00,68.0,41.0,-100.00,SE,140,7.0,17.0,38,0.00,,,0.00,287.000000,,2013-05-27 21:02:00,
2013-05-27 16:22:00,68.0,41.0,-100.00,SE,140,7.0,17.0,38,0.00,,,0.00,287.000000,,2013-05-27 21:22:00,
2013-05-27 16:33:00,68.0,41.0,-100.00,SE,140,7.0,17.0,38,0.00,,,0.00,287.000000,,2013-05-27 21:33:00,
2013-05-27 16:43:00,68.0,41.0,-100.00,SE,140,7.0,17.0,38,0.00,,,0.00,287.000000,,2013-05-27 21:43:00,
2013-05-27 16:53:00,68.0,41.0,-100.00,SE,140,7.0,17.0,38,0.00,,,0.00,287.000000,,2013-05-27 21:53:00,
2013-05-27 17:02:00,67.0,43.0,-100.00,ESE,120,7.0,15.0,41,0.00,,,0.00,248.000000,,2013-05-27 22:02:00,
2013-05-27 17:23:00,67.0,43.0,-100.00,ESE,120,7.0,15.0,41,0.00,,,0.00,248.000000,,2013-05-27 22:23:00,
2013-05-27 17:33:00,67.0,43.0,-100.00,ESE,120,7.0,15.0,41,0.00,,,0.00,248.000000,,2013-05-27 22:33:00,
2013-05-27 17:42:00,67.0,43.0,-100.00,ESE,120,7.0,15.0,41,0.00,,,0.00,248.000000,,2013-05-27 22:42:00,
2013-05-27 17:53:00,67.0,43.0,-100.00,ESE,120,7.0,15.0,41,0.00,,,0.00,248.000000,,2013-05-27 22:53:00,
2013-05-27 18:22:00,66.0,42.0,-100.00,SE,140,8.0,15.0,42,0.00,,,0.00,149.000000,,2013-05-27 23:22:00,
2013-05-27 18:32:00,66.0,42.0,-100.00,SE,140,8.0,15.0,42,0.00,,,0.00,149.000000,,2013-05-27 23:32:00,
2013-05-27 18:42:00,66.0,42.0,-100.00,SE,140,8.0,15.0,42,0.00,,,0.00,149.000000,,2013-05-27 23:42:00,
2013-05-27 18:52:00,66.0,42.0,-100.00,SE,140,8.0,15.0,42,0.00,,,0.00,149.000000,,2013-05-27 23:52:00,
2013-05-27 19:01:00,66.0,42.0,-100.00,SE,140,8.0,15.0,42,0.00,,,0.00,149.000000,,2013-05-28 00:01:00,
2013-05-27 19:22:00,64.0,41.0,-100.00,SE,142,8.0,16.0,43,0.00,,,0.00,94.000000,,2013-05-28 00:22:00,
2013-05-27 19:32:00,64.0,41.0,-100.00,SE,142,8.0,16.0,43,0.00,,,0.00,94.000000,,2013-05-28 00:32:00,
2013-05-27 19:42:00,64.0,41.0,-100.00,SE,142,8.0,16.0,43,0.00,,,0.00,94.000000,,2013-05-28 00:42:00,
2013-05-27 19:52:00,64.0,41.0,-100.00,SE,142,8.0,16.0,43,0.00,,,0.00,94.000000,,2013-05-28 00:52:00,
2013-05-27 20:01:00,64.0,41.0,-100.00,SE,142,8.0,16.0,43,0.00,,,0.00,94.000000,,2013-05-28 01:01:00,
2013-05-27 20:02:00,62.0,42.0,-100.00,SE,143,6.0,13.0,48,0.00,,,0.00,32.000000,,2013-05-28 01:02:00,
2013-05-27 20:22:00,62.0,42.0,-100.00,SE,143,6.0,13.0,48,0.00,,,0.00,32.000000,,2013-05-28 01:22:00,
2013-05-27 20:32:00,62.0,42.0,-100.00,SE,143,6.0,13.0,48,0.00,,,0.00,32.000000,,2013-05-28 01:32:00,
2013-05-27 20:42:00,62.0,42.0,-100.00,SE,143,6.0,13.0,48,0.00,,,0.00,32.000000,,2013-05-28 01:42:00,
2013-05-27 20:52:00,62.0,42.0,-100.00,SE,143,6.0,13.0,48,0.00,,,0.00,32.000000,,2013-05-28 01:52:00,
2013-05-27 21:22:00,59.0,42.0,-100.00,SE,127,7.0,13.0,54,0.00,,,0.00,10.000000,,2013-05-28 02:22:00,
2013-05-27 21:32:00,59.0,42.0,-100.00,SE,127,7.0,13.0,54,0.00,,,0.00,10.000000,,2013-05-28 02:32:00,
2013-05-27 21:42:00,59.0,42.0,-100.00,SE,127,7.0,13.0,54,0.00,,,0.00,10.000000,,2013-05-28 02:42:00,
2013-05-27 21:52:00,59.0,42.0,-100.00,SE,127,7.0,13.0,54,0.00,,,0.00,10.000000,,2013-05-28 02:52:00,
2013-05-27 22:01:00,59.0,42.0,-100.00,SE,127,7.0,13.0,54,0.00,,,0.00,10.000000,,2013-05-28 03:01:00,
2013-05-27 22:02:00,58.0,42.0,-100.00,SE,137,7.0,19.0,56,0.00,,,0.00,0.000000,,2013-05-28 03:02:00,
2013-05-27 22:22:00,58.0,42.0,-100.00,SE,137,7.0,19.0,56,0.00,,,0.00,0.000000,,2013-05-28 03:22:00,
2013-05-27 22:33:00,58.0,42.0,-100.00,SE,137,7.0,19.0,56,0.00,,,0.00,0.000000,,2013-05-28 03:33:00,
2013-05-27 22:43:00,58.0,42.0,-100.00,SE,137,7.0,19.0,56,0.00,,,0.00,0.000000,,2013-05-28 03:43:00,
2013-05-27 22:53:00,58.0,42.0,-100.00,SE,137,7.0,19.0,56,0.00,,,0.00,0.000000,,2013-05-28 03:53:00,
2013-05-27 23:02:00,57.0,42.0,-100.00,SE,143,5.0,13.0,57,0.00,,,0.00,0.000000,,2013-05-28 04:02:00,
2013-05-27 23:23:00,57.0,42.0,-100.00,SE,143,5.0,13.0,57,0.00,,,0.00,0.000000,,2013-05-28 04:23:00,
2013-05-27 23:33:00,57.0,42.0,-100.00,SE,143,5.0,13.0,57,0.00,,,0.00,0.000000,,2013-05-28 04:33:00,
2013-05-27 23:43:00,57.0,42.0,-100.00,SE,143,5.0,13.0,57,0.00,,,0.00,0.000000,,2013-05-28 04:43:00,
2013-05-27 23:53:00,57.0,42.0,-100.00,SE,143,5.0,13.0,57,0.00,,,0.00,0.000000,,2013-05-28 04:53:00,